Weather Roundup
Issued by NWS Springfield, MO

Home | Current Version | Previous Version | Text Only | Print | Product List | Glossary On
Versions: 1 2 3 4 5 6 7 8 9 10 11 12 13 14 15 16 17 18 19 20 21 22 23 24 25 26 27 28 29 30 31 32 33 34 35 36 37 38 39 40 41 42 43 44 45 46 47 48 49 50
000
NZUS99 KSGF 250607
HRRSGF

HOURLY WEATHER
NATIONAL WEATHER SERVICE SPRINGFIELD MO
100 AM CDT FRI JUL 25 2014

......SGF CWA......

CITY           SKY/WX    TMP DP  RH WIND       PRES   REMARKS
SPRINGFIELD    CLEAR     69  58  67 S7        30.04F
6HR MIN TEMP:  68; 6HR MAX TEMP:  82;

JOPLIN         CLEAR     72  61  68 SE8       30.03S
6HR MIN TEMP:  72; 6HR MAX TEMP:  86;

WEST PLAINS    CLEAR     61  55  81 CALM      30.07F
6HR MIN TEMP:  60; 6HR MAX TEMP:  79;

ROLLA          CLEAR     64  54  69 SE6       30.03F
6HR MIN TEMP:  64; 6HR MAX TEMP:  79;

OSAGE BEACH    CLEAR     64  54  68 CALM      30.02S
BRANSON        CLEAR     68  57  68 S8        30.05F

......SURROUNDING SGF CWA......

CITY           SKY/WX    TMP DP  RH WIND       PRES   REMARKS
CHANUTE        MOCLDY    73  68  84 SE7       30.00S
PARSONS        MOCLDY    76  70  82 S3        30.01S
COFFEYVILLE    PTCLDY    75  71  87 S7        29.99S
EMPORIA        PTCLDY    74  66  76 SE10      29.98R
GROVE OK       CLEAR     72  72 100 SE3       30.03S
ROGERS AR      CLEAR     72  65  78 SE7       30.06S
SILOAM SPRINGS CLEAR     68  63  83 CALM      30.06S
HARRISON AR    CLEAR     67  62  84 E5        30.07F
NEAR YELLVILLE CLEAR     63  61  94 S3        30.04F

......KANSAS AND MISSOURI......

CITY           SKY/WX    TMP DP  RH WIND       PRES   REMARKS
KANSAS CTY INT CLEAR     71  59  65 S10       29.95F
DOWNTOWN KC    CLEAR     75  58  55 S9        29.95S
COLUMBIA       CLEAR     63  56  78 SE7       30.02S
SEDALIA        CLEAR     64  57  78 S6        30.00F
ST JOSEPH      CLEAR     71  61  70 S9        29.94F
ST LOUIS       PTCLDY    70  55  59 SE9       30.03F
SPIRIT OF STL  CLEAR     60  56  86 SE3       30.00F
KIRKSVILLE     CLEAR     63  57  81 SE8       30.02R
WICHITA        PTCLDY    78  71  79 S13       29.95S
TOPEKA         CLEAR     76  58  53 SE7       29.94F
OLATHE         CLEAR     69  59  70 SE8       29.97R

......TENNESSEE......

CITY           SKY/WX    TMP DP  RH WIND       PRES   REMARKS
MEMPHIS        CLEAR     72  61  68 N5        30.03F
NASHVILLE      CLEAR     68  58  70 NE6       30.04S

......ARKANSAS.......

CITY           SKY/WX    TMP DP  RH WIND       PRES   REMARKS
FAYETTEVILLE   CLEAR     66  66 100 CALM      30.05S FOG
FT SMITH       CLEAR     76  70  82 E3        30.02S
LITTLE ROCK    CLEAR     70  63  78 CALM      30.05F

......OKLAHOMA.......

CITY           SKY/WX    TMP DP  RH WIND       PRES   REMARKS
TULSA          PTCLDY    78  71  79 SE9       29.98S
PONCA CITY     CLEAR     81  71  71 S9G18     29.96F
MCALESTER      PTCLDY    77  71  82 S6        30.02F
OKLAHOMA CITY  PTCLDY    76  68  76 S8        30.00F

......IOWA............

CITY           SKY/WX    TMP DP  RH WIND       PRES   REMARKS
DES MOINES     PTCLDY    70  59  68 SE9       29.94F
QUAD CITIES    CLEAR     62  56  80 S6        30.04R

......ILLINOIS........

CITY           SKY/WX    TMP DP  RH WIND       PRES   REMARKS
QUINCY         CLEAR     62  56  80 S5        30.04R
CHICAGO        PTCLDY    59  47  64 SE6       30.04F




USA.gov is the U.S. government's official web portal to all federal, state and local government web resources and services.